Theta_e
309 310 309 312 314 314 314 313 312 310 310 311 312 312 311 311 311 311 310 309 309 307 307 308 307 308 308 309 310 312 312 311 304 305 307 308 308 308 308 309 313 310 309
308 308 307 308 311 312 313 310 309 307 308 307 309 309 308 308 308 308 306 306 304 304 304 305 304 306 305 306 307 307 308 308 305 302 305 306 306 307 307 308 311 310 308
307 306 305 306 308 308 311 307 308 306 306 307 306 306 307 307 306 305 305 304 304 302 303 303 303 304 304 305 306 305 305 306 306 303 302 305 306 307 306 308 309 310 309
306 305 304 304 307 310 308 305 305 305 305 305 304 305 305 305 305 305 304 304 304 304 304 304 303 304 303 304 305 305 306 304 303 302 302 304 305 307 308 306 307 308 306
304 305 304 305 310 308 305 304 303 303 304 304 303 303 303 303 304 303 303 302 301 301 302 303 304 307 309 308 305 304 304 303 303 303 303 303 304 304 304 307 304 303 303
305 306 307 309 307 304 303 301 301 301 301 301 301 300 300 300 301 303 300 297 300 300 300 301 303 305 304 307 308 308 307 303 302 302 304 302 303 304 304 304 302 300 297
305 306 307 308 304 302 301 300 299 299 299 299 299 300 299 300 299 300 303 300 300 300 300 301 302 304 304 304 307 308 308 307 307 302 298 299 298 300 301 303 302 301 300
304 306 305 303 301 300 299 298 298 299 298 298 298 299 299 300 299 299 301 301 302 302 302 301 302 302 302 302 304 302 302 303 302 301 298 298 298 298 300 302 302 299 299
305 304 303 301 298 298 297 297 298 298 298 298 299 297 297 297 298 297 301 300 298 301 301 301 300 300 298 300 304 300 300 300 303 302 300 298 297 298 299 301 299 298 295
303 301 300 299 298 297 297 297 298 298 297 300 297 296 300 296 297 296 300 302 299 301 301 301 299 297 298 300 304 302 300 300 302 301 298 297 297 298 299 296 297 297 293
301 299 299 298 298 298 298 298 297 298 298 297 297 297 297 297 298 297 298 302 300 298 299 300 299 296 297 299 300 301 300 303 302 300 298 296 296 296 296 297 297 295 293
299 298 298 298 299 298 297 298 299 299 300 299 299 299 301 301 299 298 297 297 300 299 298 298 299 298 296 297 299 297 297 301 301 298 295 294 294 294 295 296 297 297 298
298 297 297 298 299 300 300 301 301 301 299 299 299 299 298 299 300 299 297 298 299 301 301 302 300 299 300 300 298 298 300 301 298 297 296 296 296 297 296 296 296 296 297
296 297 297 297 297 297 298 297 296 297 294 294 294 294 295 294 293 295 303 303 303 304 304 304 302 303 300 301 301 300 299 297 295 296 295 296 297 296 296 296 294 294 293
297 297 297 298 295 294 293 294 292 289 292 292 293 292 292 291 292 292 292 299 303 301 303 303 303 302 301 300 298 297 298 297 296 296 295 295 295 295 295 296 295 294 292
296 296 298 296 295 293 291 291 293 292 292 291 291 293 293 292 293 294 293 294 295 297 300 299 300 299 298 297 295 296 297 296 296 296 294 294 294 294 294 294 294 293 292
294 295 295 295 293 292 292 292 291 294 295 293 292 292 292 292 294 295 295 294 295 298 299 299 300 299 298 297 296 297 295 296 297 295 294 294 295 294 293 293 293 292 291
294 297 295 295 294 294 294 293 292 291 290 291 294 293 293 293 294 297 296 298 299 300 301 300 300 299 298 297 297 297 295 295 295 295 294 295 296 294 293 292 292 292 291
296 297 297 297 296 296 295 294 293 293 292 292 293 294 296 295 294 294 296 300 299 299 300 300 301 300 299 299 298 298 297 296 296 296 296 296 295 294 292 292 291 290 290
299 298 297 299 298 298 296 292 291 290 290 290 291 292 297 298 298 299 300 299 300 299 300 300 301 302 301 301 300 298 297 297 298 298 298 298 298 296 294 293 293 292 291
297 299 297 298 295 294 293 291 290 291 290 290 290 291 289 298 298 298 298 299 298 299 299 300 301 301 302 301 302 301 300 299 299 299 300 300 298 295 295 294 294 294 293
299 298 295 295 293 292 291 291 291 291 291 292 292 294 290 298 298 298 298 298 298 299 300 300 300 301 301 301 301 301 300 300 300 300 300 300 298 296 295 294 294 293 293
297 296 295 294 293 293 293 292 292 292 292 292 293 294 296 296 297 297 297 298 298 298 299 299 299 298 299 299 298 298 299 300 301 301 300 300 299 297 297 296 296 295 295
295 295 295 295 295 293 292 292 291 291 292 292 293 293 293 294 295 296 297 298 298 298 298 298 297 296 296 296 297 295 295 298 302 302 301 300 299 298 299 298 298 297 297
296 295 294 293 293 293 293 293 292 292 293 292 292 292 291 292 292 292 293 294 295 296 295 295 294 295 294 293 293 294 290 289 298 294 302 301 300 300 299 299 298 297 296
296 296 295 295 294 294 293 293 292 292 292 293 292 291 290 290 290 290 290 291 292 292 291 291 291 291 292 292 291 290 290 290 294 291 301 300 299 299 299 298 298 298 297
Wind_Speed
8 7 7 6 5 6 5 4 6 5 7 8 8 6 7 6 6 6 6 6 5 6 6 5 4 5 3 4 4 3 2 3 3 2 2 7 6 6 6 3 7 5 7
11 10 7 7 7 6 5 5 5 6 7 6 9 6 6 6 6 7 5 6 6 6 5 5 5 3 4 4 4 5 3 0 4 8 5 4 6 8 8 8 8 8 6
9 7 8 10 9 7 5 6 6 7 8 9 9 8 7 7 7 6 6 5 6 5 5 6 5 5 5 4 4 4 4 2 4 7 6 2 2 5 4 6 8 8 6
9 7 7 9 9 5 4 5 6 7 8 10 9 8 8 7 7 7 5 5 6 6 5 5 5 5 5 5 5 6 5 5 5 7 6 3 1 1 1 2 3 5 9
11 8 8 9 3 4 4 4 6 8 9 8 7 8 8 8 7 7 6 7 6 5 6 6 5 10 16 13 6 7 8 6 5 4 3 3 1 2 1 2 5 9 6
11 11 10 9 5 5 4 4 8 8 8 7 7 7 8 6 12 12 8 5 4 4 4 5 6 13 12 16 15 14 10 5 5 4 3 6 4 1 1 10 9 10 5
9 11 9 5 7 6 5 6 8 7 6 6 6 6 7 6 11 11 10 4 5 5 5 4 5 5 8 8 12 15 14 8 12 7 8 6 4 5 4 5 4 5 6
8 7 7 7 7 6 5 6 6 4 3 3 4 1 3 3 9 9 8 6 5 5 5 6 6 7 8 7 8 11 11 11 10 8 9 6 6 5 4 1 8 8 6
5 6 6 7 7 5 6 4 5 5 3 2 2 5 6 6 7 6 5 3 4 3 5 7 7 7 9 7 8 10 11 10 12 17 16 15 18 19 14 6 6 7 3
5 7 8 7 6 5 5 5 3 2 3 3 3 3 5 5 8 6 6 3 4 4 4 5 11 9 12 11 6 6 8 5 6 9 9 11 12 14 18 9 4 6 4
7 8 7 6 5 3 3 3 3 4 3 3 2 3 5 6 8 10 9 5 3 3 5 5 5 10 7 7 5 5 5 8 7 7 7 6 8 9 8 9 9 5 4
7 8 7 5 4 3 3 4 4 2 4 5 5 4 4 5 11 11 9 7 8 5 4 4 5 12 11 9 7 12 10 5 5 6 6 6 7 7 7 8 9 8 8
8 8 6 5 3 4 5 3 1 3 4 3 4 5 4 4 5 9 9 10 10 6 5 8 15 14 12 10 13 11 8 6 6 5 6 4 4 4 7 7 8 10 12
9 6 4 3 5 5 4 5 6 5 4 4 5 5 5 5 5 5 5 7 12 10 9 9 9 11 14 10 9 10 8 5 5 6 6 5 6 6 6 5 5 6 9
7 4 3 3 6 7 6 4 5 3 3 4 3 3 4 5 4 4 5 4 5 5 5 7 7 7 7 7 8 7 6 7 7 6 6 6 6 6 6 5 4 7 10
5 2 1 4 4 4 4 4 6 5 8 8 6 5 3 4 7 11 12 8 11 12 7 7 8 8 8 7 6 7 7 8 6 6 6 6 6 5 6 7 6 7 7
4 2 3 4 3 3 3 4 5 7 9 11 12 12 9 7 11 11 12 10 13 10 8 8 7 7 7 6 4 5 7 6 6 6 7 6 5 6 7 7 6 7 9
1 4 3 3 3 3 3 4 4 4 4 4 8 8 12 13 10 8 13 9 9 7 7 8 8 7 8 7 6 6 7 6 6 7 7 5 6 7 7 7 6 8 9
4 4 5 4 3 4 4 4 4 5 5 5 5 8 10 14 13 15 12 9 8 9 7 8 8 7 6 5 6 8 7 6 5 7 6 8 8 8 9 8 9 10 11
6 9 2 2 4 7 6 5 4 4 5 5 7 5 8 12 12 11 9 8 8 8 6 7 7 7 7 7 8 10 6 5 5 5 5 6 7 7 8 8 8 10 10
2 5 8 8 8 7 7 5 5 6 6 5 5 6 10 11 10 10 8 8 7 6 6 9 9 5 6 6 7 6 4 3 3 4 4 5 9 8 7 8 9 10 11
4 1 4 7 5 5 5 4 4 5 5 6 5 8 10 9 9 9 9 8 8 8 6 8 7 6 4 4 3 3 3 1 2 4 3 4 8 7 9 9 10 10 10
5 6 6 5 5 6 6 6 6 6 6 6 7 8 9 9 9 8 9 8 9 8 8 8 7 6 5 4 3 3 2 3 2 1 4 7 8 7 6 7 8 9 9
6 6 7 9 8 6 6 6 6 8 6 6 7 7 5 7 9 10 9 8 8 8 9 8 8 10 7 5 4 4 4 4 4 5 7 7 7 7 5 5 4 5 4
6 6 7 6 6 5 6 6 6 6 6 5 5 6 6 8 9 9 8 8 9 9 10 9 9 12 12 12 9 9 10 12 11 9 7 11 13 14 11 9 8 6 4
6 6 6 6 6 6 6 6 6 6 6 6 6 6 7 8 8 8 6 7 7 9 9 9 11 15 15 11 12 13 13 13 11 12 11 11 11 10 9 11 13 11 13
Wind_Direction
4 352 357 343 335 338 340 8 347 14 29 37 52 16 355 8 5 32 26 18 15 10 12 360 350 341 350 343 321 284 227 123 115 80 93 142 128 142 112 169 153 162 173
355 352 342 336 333 331 16 3 12 15 23 32 42 34 22 22 21 38 46 42 35 32 13 23 17 351 11 15 354 331 309 263 125 138 138 141 141 158 174 180 167 185 153
343 336 332 327 326 324 52 16 16 16 13 28 27 20 26 32 48 48 48 49 48 34 14 21 12 8 14 20 38 5 348 46 110 134 127 124 134 174 187 202 182 186 145
325 326 319 318 316 56 36 40 25 24 26 35 20 26 25 35 43 48 42 43 43 29 12 13 6 19 29 14 41 34 35 18 86 112 127 125 71 165 139 143 98 113 128
317 318 306 300 80 77 55 48 47 38 42 37 29 31 23 26 27 26 24 31 29 23 25 5 17 45 43 47 44 31 35 44 29 56 78 79 47 91 197 147 109 107 105
315 318 319 334 97 86 57 46 64 53 48 40 37 40 35 30 25 35 43 32 20 23 19 7 19 33 19 20 32 51 52 38 37 25 63 81 25 7 27 127 127 121 102
321 319 331 87 72 68 60 55 59 54 54 43 39 37 41 34 31 24 22 30 32 20 19 9 19 24 19 8 35 69 57 67 60 69 61 26 31 0 9 113 128 103 98
317 25 44 63 74 66 65 60 58 52 50 42 39 59 84 47 35 20 358 360 35 28 355 357 18 2 17 15 50 66 65 62 66 66 64 53 42 4 39 169 113 99 97
334 48 48 65 72 69 69 66 46 39 23 43 349 23 26 3 6 18 19 30 25 61 56 36 22 5 353 55 83 88 92 98 96 80 70 52 47 38 32 97 119 121 87
57 65 71 69 69 59 46 46 9 330 350 44 43 12 8 354 355 19 61 56 24 15 29 35 26 21 42 45 73 80 74 56 66 65 46 43 41 44 44 41 26 103 130
85 84 79 75 73 49 38 16 1 349 357 42 40 24 9 9 29 31 38 53 42 37 25 23 35 26 80 106 82 86 94 105 99 85 71 59 51 48 47 44 44 58 88
88 82 71 50 41 29 348 314 321 23 58 53 34 23 11 23 38 43 37 50 25 55 26 10 6 40 57 86 78 106 106 92 80 79 79 68 65 58 52 55 56 57 58
89 77 61 45 12 319 318 342 329 80 66 27 42 54 42 21 22 26 20 25 36 45 42 38 25 34 52 55 66 69 63 71 79 79 84 67 71 90 68 54 56 67 64
93 84 72 21 18 20 29 26 44 27 38 30 35 36 15 18 13 354 28 33 36 34 34 36 35 54 55 52 54 56 51 54 71 73 70 66 69 61 55 55 63 73 76
100 105 53 31 66 64 50 23 69 15 77 71 43 51 44 25 357 7 28 31 61 31 35 47 37 42 46 40 56 44 59 55 59 62 66 69 71 70 52 42 54 79 82
118 89 70 93 74 69 66 36 26 85 59 56 47 64 65 58 53 67 60 53 67 51 52 48 51 56 52 43 50 52 50 57 57 64 61 70 77 71 74 60 49 65 82
141 142 95 107 119 116 79 74 61 353 27 35 28 41 55 60 45 57 80 82 72 48 59 56 60 61 55 60 50 55 61 57 57 64 74 75 77 77 73 73 68 72 73
346 322 140 174 169 133 96 70 62 61 49 1 350 19 28 51 89 45 54 71 63 58 47 53 64 64 55 49 45 68 68 62 64 77 79 63 62 79 78 73 72 82 82
258 264 199 188 172 123 94 72 55 42 23 8 359 6 11 34 57 51 70 70 64 61 51 57 72 78 74 62 63 64 75 65 72 85 90 83 79 79 80 79 78 79 86
266 240 148 88 60 71 70 71 61 55 52 41 41 22 36 49 54 52 59 61 64 64 57 62 64 62 53 49 57 78 80 52 44 43 52 64 77 80 80 83 81 85 82
69 42 12 81 85 87 83 72 66 61 51 41 39 42 55 65 59 59 52 47 54 60 57 60 68 50 57 49 59 81 82 24 31 22 358 39 83 86 83 84 88 91 94
88 76 97 88 92 90 96 91 75 68 56 47 36 45 47 66 66 60 52 44 41 39 41 58 67 65 55 68 47 57 78 96 311 310 16 27 103 104 102 103 103 102 102
101 84 74 72 76 72 65 63 65 65 66 57 60 59 59 60 59 62 58 53 49 45 40 40 45 41 29 35 31 48 80 344 359 346 78 97 113 104 100 97 101 105 99
95 78 77 86 81 73 70 70 70 66 66 58 59 60 64 70 66 60 53 49 46 44 40 37 36 39 32 23 15 10 13 20 42 45 55 61 81 107 116 105 97 94 79
83 82 85 87 80 75 66 66 68 65 63 60 56 57 57 60 60 53 44 42 38 35 32 28 26 31 33 33 33 29 31 40 53 51 59 69 72 76 83 83 86 79 76
84 80 78 77 73 72 70 68 67 66 66 69 69 68 68 64 58 54 45 43 43 40 36 32 27 29 33 32 40 44 45 45 47 50 62 59 57 55 57 60 61 64 65